[[{"header":{"parameterUnit":"m.s-1","parameterCategory":1,"la1":30.2991,"la2":30.254,"lo1":-89.0895,"lo2":-89.0444,"dy":0.0017,"dx":0.0017,"nx":28,"ny":28,"refTime":"2023-07-31T21:00:00:Z","depth":0,"parameterNumber":2,"parameterNumberName":"U-component_of_WINDS"},"data":[0,0,0,0,0,0,0,0,0,0,0,0,0,0,0,0,0,0,0,0,0,0,0,0,0,0,0,0,0,0,0,0,0,0,0,0,0,0,0,0,0,0,0,0,0,0,0,0,0,0,0,0,0,0,0,0,0,0,1.9813,1.9815,0,2.0027,2.003,2.0032,2.0106,2.0105,2.0104,2.0103,2.0324,2.033,2.0337,0,0,0,0,0,0,0,0,0,0,0,0,0,1.9465,1.9471,1.9812,1.9815,1.9818,2.0027,2.003,2.0033,2.0106,2.0105,2.0104,2.0103,2.0321,2.0329,2.0337,0,0,0,0,0,0,0,0,0,0,0,0,0,1.9641,1.9473,1.9812,1.9879,1.9888,2.0026,2.003,2.0034,2.0106,2.0105,2.0104,2.0102,2.0319,2.0328,2.0338,2.0426,0,0,2.0369,2.0373,0,0,0,0,0,0,0,0,1.9631,1.9654,1.9867,1.9875,1.9885,2.0039,1.9988,2.0165,2.0107,2.0023,2.0103,2.0102,2.023,2.0247,2.029,2.0436,2.0445,2.037,2.0376,2.038,2.0383,0,0,0,0,0,0,0,1.9619,1.9645,1.9898,1.987,1.9881,1.9899,1.9922,2.0022,2.0131,2.003,2.0036,2.0061,2.0234,2.028,2.0296,2.0449,2.0369,2.0378,2.0384,2.0388,2.0676,2.0678,0,0,0,0,0,0,1.9595,1.9634,1.9891,1.9904,1.9752,1.9906,1.9933,1.999,2.013,2.015,2.0062,2.0063,2.0264,2.0284,2.0304,2.0414,2.038,2.0389,2.0395,2.0674,2.0676,2.0678,0,0,0,0,0,0,1.9587,1.9617,1.9882,1.9771,1.9806,1.9913,1.9978,1.9995,2.0041,2.0154,2.0173,2.0088,2.0264,2.029,2.0395,2.0423,2.0394,2.0403,2.0672,2.0675,2.0677,2.0636,0,0,0,0,0,0,1.9577,1.9614,1.9649,1.9771,1.9812,1.9969,1.998,2.0,2.0058,2.0063,2.0184,2.0203,2.0265,2.0379,2.0404,2.0436,2.0411,2.067,2.0674,2.0676,2.0636,2.0637,2.0638,0,0,0,0,0,1.9565,1.9629,1.965,1.9681,1.9857,1.9971,1.9994,2.0063,2.006,2.0096,2.0168,2.0199,2.0416,2.0389,2.0418,2.0454,2.0669,2.0673,2.0676,2.0635,2.0637,2.0638,0,0,0,0,0,0,1.9507,1.9646,1.9671,1.9777,1.9861,1.9983,2.0029,2.0063,2.015,2.015,2.0233,2.026,2.0358,2.0417,2.0384,2.0545,2.0544,2.0554,2.0503,2.0506,2.0507,2.049,2.0419,0,0,0,0,0,1.9507,1.9588,1.9705,1.9787,1.9828,1.9921,1.9973,2.0019,2.011,2.0146,2.0226,2.0313,2.0401,2.0457,2.0544,2.0645,2.0672,2.0683,2.0685,2.0685,2.0692,2.0749,2.0755,2.069,2.069,2.069,0,0,1.9507,1.9593,1.9639,1.9778,1.9848,1.993,1.9951,2.0036,2.0097,2.0159,2.0263,2.0324,2.0427,2.0529,2.0579,2.0582,2.0716,2.069,2.069,2.0697,2.0754,2.076,2.0765,2.0693,2.0692,2.0692,0,0,1.9548,1.9622,1.9698,1.9768,1.9875,1.9937,1.9955,2.0071,2.0114,2.0219,2.0267,2.0341,2.0491,2.0561,2.0617,2.0684,2.0716,2.071,2.0717,2.0771,2.0777,2.0782,2.0805,2.0812,2.0717,2.0717,2.0717,0,1.9535,1.966,1.9733,1.9816,1.9875,1.9934,2.0011,2.0076,2.0206,2.0245,2.0246,2.0434,2.0508,2.0627,2.0643,2.0687,2.071,2.0696,2.077,2.0776,2.0781,2.0804,2.0813,2.0715,2.0716,2.0716,2.0716,0,1.9637,1.9723,1.9772,1.9895,1.996,2.0039,2.0124,2.018,2.0221,2.0282,2.0388,2.0477,2.0583,2.0615,2.0656,2.0741,2.0739,2.0754,2.0754,2.0785,2.0808,2.0817,2.0713,2.0714,2.0714,2.0715,0,0,1.9648,1.981,1.9827,1.9883,2.0005,2.0073,2.0155,2.0258,2.0304,2.0392,2.0462,2.0587,2.0601,2.0664,2.0713,2.0761,2.0807,2.077,2.0774,2.0773,2.0905,2.0892,2.0901,2.0829,2.0831,2.0833,2.0896,0,1.9705,1.9854,1.9921,2.004,2.0119,2.0177,2.0248,2.033,2.039,2.0466,2.0532,2.0618,2.0631,2.0669,2.0719,2.0791,2.0834,2.0787,2.0895,2.0898,2.0866,2.0913,2.09,2.0955,2.0905,2.0907,2.0908,0,1.979,1.9877,2.0003,2.0115,2.0151,2.0214,2.0313,2.0385,2.048,2.0519,2.0589,2.0636,2.0724,2.0718,2.084,2.0806,2.0855,2.0896,2.09,2.0912,2.0904,2.0925,2.0975,2.0982,2.0923,2.0922,2.0921,0,1.9784,1.9933,2.0027,2.0074,2.0207,2.0249,2.0307,2.04,2.0457,2.0544,2.0582,2.0678,2.073,2.0804,2.0875,2.0865,2.099,2.0991,2.1024,2.1023,2.1048,2.1045,2.1104,2.108,2.108,2.108,2.1079,0,1.9839,1.9914,2.0026,2.0084,2.0169,2.0246,2.0328,2.039,2.0472,2.0542,2.0599,2.0664,2.0754,2.0831,2.0887,2.0979,2.1003,2.1037,2.1051,2.1031,2.1027,2.1063,2.1061,2.1082,2.1081,2.1081,2.1081,0,1.9846,1.9925,2.0031,2.0148,2.0179,2.0237,2.0337,2.0395,2.0457,2.0545,2.0571,2.0668,2.0761,2.0839,2.0962,2.1,2.1094,2.1111,2.1062,2.1069,2.1098,2.1094,2.1182,2.1198,2.1163,2.1163,2.1164,0,1.9876,1.9934,2.0058,2.0109,2.0165,2.0247,2.0306,2.0384,2.0443,2.0554,2.0599,2.0695,2.0777,2.0922,2.1004,2.1098,2.1117,2.1141,2.1131,2.111,2.1116,2.1111,2.1117,2.1141,2.1141,2.1141,2.1141,0,1.9919,1.9955,2.0038,2.0133,2.0202,2.0281,2.0362,2.0401,2.0494,2.0557,2.0652,2.0715,2.084,2.0935,2.1037,2.1096,2.1134,2.1144,2.1157,2.1137,2.1105,2.1122,2.1062,2.1142,2.1142,2.1142,2.1142,2.1142,1.9938,1.9993,2.0087,2.0177,2.0246,2.032,2.038,2.045,2.053,2.0638,2.0679,2.0776,2.0869,2.101,2.1069,2.1146,2.1152,2.117,2.1175,2.1178,2.1174,2.1094,2.1165,2.1165,2.1165,2.1166,2.1166,0,1.9984,2.0048,2.0129,2.024,2.0311,2.0341,2.0431,2.0488,2.0573,2.0656,2.0735,2.0844,2.0936,2.1025,2.1122,2.1166,2.1186,2.1189,2.1186,2.1199,2.1164,2.1143,2.1171,2.1171,2.1171,2.1171,2.1171,2.1171,2.0016,2.0109,2.0156,2.0283,2.0347,2.0443,2.0492,2.056,2.0627,2.0746,2.0823,2.088,2.0965,2.1068,2.1154,2.1178,2.1211,2.1209,2.1237,2.1203,2.1201,2.12,2.118,2.1215,2.1215,2.1265,2.1265,2.1266]},{"header":{"parameterUnit":"m.s-1","parameterCategory":1,"la1":30.2991,"la2":30.254,"lo1":-89.0895,"lo2":-89.0444,"dy":0.0017,"dx":0.0017,"nx":28,"ny":28,"refTime":"2023-07-31T21:00:00:Z","depth":0,"parameterNumber":3,"parameterNumberName":"V-component_of_WINDS"},"data":[0,0,0,0,0,0,0,0,0,0,0,0,0,0,0,0,0,0,0,0,0,0,0,0,0,0,0,0,0,0,0,0,0,0,0,0,0,0,0,0,0,0,0,0,0,0,0,0,0,0,0,0,0,0,0,0,0,0,4.3903,4.3902,0,4.3815,4.3814,4.3813,4.3717,4.3715,4.3714,4.3713,4.3617,4.3616,4.3615,0,0,0,0,0,0,0,0,0,0,0,0,0,4.3984,4.3983,4.3903,4.3902,4.3901,4.3815,4.3814,4.3813,4.3717,4.3715,4.3714,4.3712,4.3618,4.3616,4.3615,0,0,0,0,0,0,0,0,0,0,0,0,0,4.3928,4.3982,4.3904,4.3843,4.3837,4.3816,4.3814,4.3813,4.3717,4.3715,4.3713,4.3711,4.3618,4.3616,4.3615,4.3644,0,0,4.3609,4.3608,0,0,0,0,0,0,0,0,4.3931,4.3925,4.3853,4.3847,4.384,4.3775,4.3807,4.3756,4.3718,4.3763,4.3713,4.371,4.3671,4.3665,4.3653,4.364,4.3636,4.3609,4.3607,4.3607,4.3606,0,0,0,0,0,0,0,4.3935,4.3928,4.3868,4.3852,4.3844,4.3819,4.3809,4.3797,4.3729,4.3759,4.3751,4.3743,4.3667,4.3655,4.365,4.3634,4.3609,4.3607,4.3606,4.3605,4.3641,4.3643,0,0,0,0,0,0,4.3949,4.3932,4.3871,4.3866,4.3882,4.3819,4.3808,4.3798,4.3729,4.3717,4.3744,4.3738,4.3659,4.3652,4.3646,4.3676,4.3607,4.3605,4.3604,4.3639,4.3641,4.3643,0,0,0,0,0,0,4.3951,4.3944,4.3875,4.3897,4.3886,4.382,4.381,4.3797,4.3785,4.3719,4.3705,4.3745,4.3657,4.3649,4.3646,4.3671,4.3604,4.3602,4.3636,4.3639,4.3642,4.3736,0,0,0,0,0,0,4.3953,4.3945,4.3957,4.3898,4.3885,4.3878,4.3811,4.3797,4.3782,4.3774,4.3715,4.3703,4.3655,4.3649,4.3644,4.3667,4.3601,4.3633,4.3638,4.3641,4.3731,4.3742,4.3752,0,0,0,0,0,4.3957,4.3986,4.3958,4.3951,4.3899,4.3879,4.3872,4.3817,4.3785,4.3795,4.3753,4.3705,4.367,4.365,4.3643,4.3666,4.3632,4.3636,4.3641,4.3726,4.374,4.3752,0,0,0,0,0,0,4.4048,4.3977,4.3945,4.3957,4.3925,4.3863,4.3875,4.3834,4.3809,4.3801,4.3732,4.372,4.3725,4.3695,4.3674,4.3691,4.3644,4.3647,4.3711,4.3723,4.3734,4.3741,4.3599,0,0,0,0,0,4.407,4.4062,4.3999,4.4015,4.4001,4.3941,4.3931,4.3891,4.3855,4.384,4.3797,4.3762,4.3743,4.3731,4.371,4.3726,4.3711,4.3739,4.375,4.3759,4.3763,4.3768,4.3779,4.3659,4.3659,4.3659,0,0,4.4114,4.4075,4.4073,4.4033,4.4004,4.3995,4.393,4.3924,4.3917,4.3838,4.3834,4.3801,4.3757,4.3764,4.3765,4.3739,4.3793,4.3765,4.3773,4.3771,4.3774,4.3786,4.3796,4.3662,4.3661,4.3661,0,0,4.4191,4.4161,4.4171,4.4143,4.41,4.406,4.4063,4.4007,4.3983,4.3978,4.3919,4.3908,4.3877,4.3848,4.3829,4.3896,4.3851,4.3891,4.3947,4.3953,4.3963,4.3971,4.3994,4.4003,4.3895,4.3895,4.3895,0,4.4251,4.4238,4.418,4.4178,4.4162,4.4093,4.4102,4.4077,4.4029,4.4019,4.3991,4.395,4.3916,4.3915,4.3932,4.3919,4.3918,4.3897,4.3966,4.3974,4.398,4.4002,4.4011,4.39,4.3899,4.3899,4.3898,0,4.4313,4.4305,4.4318,4.4275,4.426,4.4264,4.4206,4.4197,4.4159,4.4122,4.4117,4.4073,4.4042,4.4039,4.4001,4.4032,4.4018,4.398,4.393,4.3998,4.4017,4.4025,4.3907,4.3905,4.3904,4.3903,0,0,4.4444,4.4371,4.4377,4.4356,4.4304,4.4296,4.4296,4.4267,4.4261,4.423,4.4227,4.4203,4.4167,4.4146,4.4104,4.411,4.4165,4.4071,4.4068,4.4089,4.4197,4.4226,4.4236,4.4136,4.4137,4.4138,4.42,0,4.4511,4.4508,4.4457,4.4468,4.4459,4.4394,4.4394,4.4361,4.4326,4.4312,4.4272,4.4256,4.4211,4.4198,4.4201,4.4158,4.4186,4.4153,4.4131,4.4131,4.4144,4.4246,4.4276,4.4337,4.4207,4.4208,4.4209,0,4.4588,4.4564,4.4576,4.4524,4.4518,4.4519,4.4488,4.4476,4.4438,4.4412,4.4389,4.4342,4.4337,4.4292,4.4282,4.4261,4.4249,4.4227,4.4228,4.4223,4.4174,4.4243,4.4355,4.4364,4.422,4.4219,4.4219,0,4.4682,4.4652,4.4655,4.464,4.458,4.4582,4.4556,4.4516,4.4502,4.4475,4.4465,4.4437,4.4422,4.44,4.4347,4.4319,4.4343,4.4294,4.432,4.4322,4.4328,4.4328,4.4439,4.4321,4.4321,4.4321,4.4321,0,4.4762,4.4771,4.4697,4.4698,4.4706,4.4647,4.4656,4.4624,4.4589,4.4582,4.4523,4.4517,4.4447,4.4433,4.4391,4.439,4.4383,4.4361,4.4349,4.4366,4.4369,4.4356,4.4351,4.4323,4.4323,4.4323,4.4322,0,4.4868,4.4818,4.4817,4.4761,4.4747,4.4755,4.4706,4.4704,4.4666,4.4658,4.4653,4.4593,4.4573,4.4518,4.4484,4.4456,4.4466,4.4445,4.448,4.4472,4.4502,4.45,4.4608,4.4619,4.4496,4.4497,4.4499,0,4.4922,4.4927,4.4872,4.4865,4.4842,4.483,4.4816,4.4758,4.4745,4.4702,4.4706,4.4682,4.466,4.4632,4.4584,4.4557,4.4535,4.4575,4.453,4.4547,4.4535,4.4535,4.4535,4.4584,4.4586,4.4587,4.4588,0,4.5022,4.4998,4.4981,4.4956,4.4942,4.4918,4.4892,4.4888,4.4822,4.4811,4.4792,4.4775,4.4742,4.4718,4.4685,4.4656,4.4611,4.4603,4.4607,4.4624,4.4644,4.4633,4.4506,4.46,4.4599,4.4598,4.4598,4.4597,4.5103,4.5105,4.5067,4.505,4.5025,4.5001,4.4997,4.496,4.4943,4.4913,4.4879,4.4863,4.4823,4.4774,4.4749,4.4735,4.4711,4.4718,4.4719,4.4722,4.4729,4.4647,4.4728,4.4728,4.4727,4.4727,4.4727,0,4.52,4.5173,4.5158,4.5124,4.511,4.5071,4.504,4.5031,4.5019,4.4987,4.4967,4.4945,4.4922,4.4873,4.4846,4.4844,4.4822,4.4838,4.4837,4.4831,4.4752,4.4751,4.4856,4.4856,4.4856,4.4856,4.4856,4.4856,4.5249,4.5251,4.5222,4.521,4.5182,4.5168,4.5153,4.5131,4.5105,4.5084,4.5066,4.5035,4.4995,4.4965,4.4942,4.4928,4.492,4.4943,4.4922,4.4849,4.4837,4.4825,4.4824,4.4942,4.4942,4.5002,4.5003,4.5003]}]]